La Roche-Sur-Yon, France

2:46 AM CEST on August 20, 2017 (GMT +0200)
Les Ajoncs

Weather History for LFRI - April, 2014

Change the Weather History Date:

Thursday, April 24, 2014

  Actual Average (LFRS) Record (LFRS)
Temperature  
Mean Temperature 48 °F -  
Max Temperature 58 °F 61 °F 75 °F (2002)
Min Temperature 37 °F 46 °F 34 °F (2016)
Degree Days  
Heating Degree Days 18    
Moisture  
Dew Point 45 °F    
Average Humidity 86    
Maximum Humidity 100    
Minimum Humidity 50    
Precipitation  
Precipitation 0.08 in - - ()
Sea Level Pressure  
Sea Level Pressure 30.05 in    
Wind  
Wind Speed 3 mph ()    
Max Wind Speed 10 mph    
Max Gust Speed -    
Visibility 4.9 miles    
Events Fog , Rain    
Averages and records for this station are not official NWS values.
T = Trace of Precipitation, MM = Missing Value Source: Averaged Metar Reports

Daily Weather History Graph

Daily Weather History Graph

Search for Another Location

Airport or City:

Trip Planner

Search our weather history database for the weather conditions in past years. The results will help you decide how hot, cold, wet, or windy it might be!

Date:

Astronomy

Apr. 24, 2014 Rise Set
Actual Time 7:02 AM CEST 9:05 PM CEST
Civil Twilight 6:29 AM CEST 9:38 PM CEST
Nautical Twilight 5:49 AM CEST 10:19 PM CEST
Astronomical Twilight 5:04 AM CEST 11:04 PM CEST
Moon 4:24 AM CEST (4/24) 3:46 PM CEST (4/24)
Length of Visible Light 15h 08m
Length of Day
14h 03m
Waning Crescent, 27% of the Moon is Illuminated
Apr 24
Waning Crescent
Apr 29
New
May 7
First Quarter
May 14
Full
May 21
Last Quarter

Hourly Weather History & Observations

Time (CEST) Temp. Windchill Dew Point Humidity Pressure Visibility Wind Dir Wind Speed Gust Speed Precip Events Conditions
12:00 AM 46 °F - 46 °F 97% 30.17 in 0 mi Calm Calm - - Fog Partial Fog
12:00 AM 46.4 °F - 44.6 °F 93% 30.15 in 0.3 mi Calm Calm - N/A Fog Fog
12:30 AM 46.4 °F - 46.4 °F 100% 30.15 in 3.7 mi West 2.3 mph - N/A   Unknown
1:00 AM 46 °F - 45 °F 95% 30.17 in 0 mi West 2.3 mph - - Fog Partial Fog
1:00 AM 44.6 °F 43.1 °F 44.6 °F 100% 30.15 in 0.2 mi West 3.5 mph - N/A Fog Fog
1:30 AM 44.6 °F - 44.6 °F 100% 30.15 in 0.2 mi WSW 2.3 mph - N/A Fog Fog
2:00 AM 43 °F - 42 °F 96% 30.18 in 0 mi WSW 1.2 mph - - Fog Partial Fog
2:00 AM 42.8 °F - 42.8 °F 100% 30.15 in 0.1 mi Calm Calm - N/A Fog Fog
2:30 AM 44.6 °F 43.1 °F 44.6 °F 100% 30.15 in 0.1 mi SE 3.5 mph - N/A Fog Fog
3:00 AM 42 °F - 42 °F 100% 30.17 in 0 mi SSE 3.5 mph - - Fog Partial Fog
3:00 AM 42.8 °F - 41.0 °F 93% 30.15 in 0.1 mi SSE 2.3 mph - N/A Fog Fog
3:30 AM 37.4 °F - 37.4 °F 100% 30.15 in 0.1 mi East 2.3 mph - N/A Fog Fog
4:00 AM 40 °F - 40 °F 98% 30.16 in 0 mi Calm Calm - - Fog Partial Fog
4:00 AM 39.2 °F - 39.2 °F 100% 30.12 in 0.1 mi Calm Calm - N/A Fog Fog
4:30 AM 41.0 °F - 41.0 °F 100% 30.12 in 0.1 mi SSE 1.2 mph - N/A Fog Fog
5:00 AM 40 °F - 40 °F 100% 30.15 in 0 mi SSE 2.3 mph - - Fog Partial Fog
5:00 AM 41.0 °F - 41.0 °F 100% 30.12 in 0.1 mi SSE 2.3 mph - N/A Fog Fog
5:30 AM 39.2 °F - 37.4 °F 93% 30.12 in 0.2 mi SE 2.3 mph - N/A Fog Fog
6:00 AM 42 °F - 42 °F 100% 30.14 in 0 mi SE 1.2 mph - - Fog Partial Fog
6:00 AM 42.8 °F - 42.8 °F 100% 30.12 in 0.2 mi Calm Calm - N/A Fog Fog
6:30 AM 41.0 °F - 41.0 °F 100% 30.12 in 0.2 mi South 1.2 mph - N/A Fog Fog
7:00 AM 41 °F - 40 °F 97% 30.14 in 0 mi Calm Calm - - Fog Partial Fog
7:00 AM 41.0 °F - 41.0 °F 100% 30.12 in 0.2 mi Calm Calm - N/A Fog Fog
7:30 AM 39.2 °F - 39.2 °F 100% 30.09 in 0.2 mi North 2.3 mph - N/A Fog Fog
8:00 AM 39 °F - 39 °F 100% 30.13 in 0 mi NE 3.5 mph - - Fog Partial Fog
8:00 AM 39.2 °F 37.0 °F 39.2 °F 100% 30.09 in 0.2 mi NE 3.5 mph - N/A Fog Fog
8:30 AM 44.6 °F 43.1 °F 44.6 °F 100% 30.09 in - NE 3.5 mph - N/A Fog Fog
9:00 AM 48 °F - 48 °F 98% 30.12 in 6 mi ENE 3.5 mph - - Fog Light Fog
9:00 AM 48.2 °F - 48.2 °F 100% 30.09 in 6.2 mi ENE 3.5 mph - N/A   Partly Cloudy
9:30 AM 51.8 °F - 51.8 °F 100% 30.09 in 6.2 mi ENE 4.6 mph - N/A   Unknown
10:00 AM 52 °F - 50 °F 92% 30.12 in 12 mi ENE 5.8 mph - -   Partly Cloudy
10:00 AM 51.8 °F - 50.0 °F 94% 30.09 in 6.2 mi ENE 5.8 mph - N/A   Mostly Cloudy
10:30 AM 55.4 °F - 50.0 °F 82% 30.09 in 6.2 mi NE 6.9 mph - N/A   Mostly Cloudy
11:00 AM 55 °F - 49 °F 75% 30.09 in 12 mi NE 9.2 mph - -   Partly Cloudy
11:00 AM 55.4 °F - 50.0 °F 82% 30.06 in 6.2 mi NE 9.2 mph - N/A   Mostly Cloudy
11:30 AM 55.4 °F - 48.2 °F 77% 30.06 in 6.2 mi NE 10.4 mph - N/A   Mostly Cloudy
12:00 PM 56 °F - 46 °F 60% 30.07 in 12 mi ENE 8.1 mph - -   Partly Cloudy
12:00 PM 57.2 °F - 46.4 °F 67% 30.06 in 6.2 mi ENE 8.1 mph - N/A   Mostly Cloudy
12:30 PM 57.2 °F - 46.4 °F 67% 30.06 in 6.2 mi ENE 6.9 mph - N/A   Scattered Clouds
1:00 PM 58 °F - 46 °F 55% 30.05 in 12 mi East 6.9 mph - -   Scattered Clouds
1:00 PM 57.2 °F - 46.4 °F 67% 30.04 in 6.2 mi East 6.9 mph - N/A   Scattered Clouds
1:30 PM 57.2 °F - 44.6 °F 63% 30.04 in 6.2 mi ENE 5.8 mph - N/A   Partly Cloudy
2:00 PM 58 °F - 44 °F 50% 30.04 in 12 mi East 3.5 mph - -   Partly Cloudy
2:00 PM 57.2 °F - 42.8 °F 59% 30.04 in 6.2 mi Variable 3.5 mph - N/A   Unknown
2:30 PM 57.2 °F - 44.6 °F 63% 30.04 in 6.2 mi Variable 2.3 mph - N/A   Mostly Cloudy
3:00 PM 57 °F - 44 °F 53% 30.02 in 12 mi NNE 3.5 mph - -   Scattered Clouds
3:00 PM 57.2 °F - 44.6 °F 63% 30.01 in 6.2 mi NNE 3.5 mph - N/A   Mostly Cloudy
3:30 PM 57.2 °F - 44.6 °F 63% 30.01 in 6.2 mi Variable 1.2 mph - N/A   Unknown
4:00 PM 57 °F - 45 °F 55% 30.01 in 19 mi Calm Calm - -   Mostly Cloudy
4:00 PM 57.2 °F - 44.6 °F 63% 30.01 in 6.2 mi Calm Calm - N/A   Unknown
4:30 PM 55.4 °F - 44.6 °F 67% 29.98 in 6.2 mi Variable 2.3 mph - N/A Rain Light Rain
5:00 PM 54 °F - 46 °F 66% 29.98 in 9 mi Calm Calm - - Rain Light Rain Showers
5:00 PM 53.6 °F - 46.4 °F 77% 29.95 in 6.2 mi Calm Calm - N/A Rain Light Rain
5:30 PM 53.6 °F - 48.2 °F 82% 29.95 in 6.2 mi ESE 5.8 mph - N/A Rain Light Rain
6:00 PM 52 °F - 50 °F 91% 29.98 in 6 mi South 4.6 mph - - Rain Light Rain
6:00 PM 51.8 °F - 50.0 °F 94% 29.98 in 5.6 mi South 4.6 mph - N/A Rain Light Rain
6:30 PM 51.8 °F - 50.0 °F 94% 29.95 in 6.2 mi Variable 1.2 mph - N/A Rain Light Rain
7:00 PM 53 °F - 49 °F 84% 29.96 in 12 mi NW 1.2 mph - - Rain Light Rain
7:00 PM 53.6 °F - 50.0 °F 88% 29.95 in 6.2 mi Calm Calm - N/A Rain Light Rain
7:30 PM 51.8 °F - 50.0 °F 94% 29.95 in 6.2 mi NW 4.6 mph - N/A   Overcast
8:00 PM 52 °F - 49 °F 84% 29.96 in 18 mi WNW 5.8 mph - -   Clear
8:00 PM 51.8 °F - 48.2 °F 88% 29.95 in 6.2 mi NW 5.8 mph - N/A   Overcast
8:30 PM 51.8 °F - 48.2 °F 88% 29.92 in 6.2 mi Variable 3.5 mph - N/A   Overcast
9:00 PM 50 °F - 45 °F 76% 29.94 in 37 mi North 4.6 mph - -   Clear
9:00 PM 50.0 °F - 44.6 °F 82% 29.92 in 6.2 mi North 4.6 mph - N/A   Overcast
9:30 PM 50.0 °F - 46.4 °F 87% 29.92 in 6.2 mi NNW 4.6 mph - N/A   Overcast
10:00 PM 49 °F - 46 °F 86% 29.93 in 28 mi WNW 5.8 mph - -   Clear
10:00 PM 50.0 °F - 46.4 °F 87% 29.92 in 6.2 mi WNW 6.9 mph - N/A   Unknown
10:30 PM 50.0 °F - 46.4 °F 87% 29.92 in 6.2 mi WNW 4.6 mph - N/A   Overcast
11:00 PM 49 °F - 45 °F 83% 29.95 in 34 mi West 5.8 mph - -   Clear
11:00 PM 50.0 °F - 44.6 °F 82% 29.92 in 6.2 mi West 5.8 mph - N/A   Unknown
11:30 PM 48.2 °F - 46.4 °F 93% 29.92 in 6.2 mi WNW 5.8 mph - N/A   Unknown